Погода в Мужичах

Россия / Республика Ингушетия     43°01′38″N   44°59′41″E
В апреле 2022 года жителям России запретили посещать сайт meteo.paraplan.net по решению Генеральной прокуратуры. Аудитория сайта уменьшилась в 10 раз. Владельцы сайта не видят смысла в поддержке погодного сервера в таких условиях. Сайт будет закрыт в октябре.
темп.,
°C
ветер,
м/с
пор.,
м/с
влажн.,
%
обл.,
%
осадки,
мм/ч
давл.,
гПа
погр.,
м
6 октября, чт
чт600:00+11ссз1186100 0.0 1025167
03:00+10с1290100 0.0 1025234
06:00+10ссв1192100 0.0 1025199
09:00+10св1291100 0.0 1025336
12:00+10с1190100 0.0 1026418
15:00+10всв1189100 0.1 1025282
18:00+10с1192100 0.0 1026124
21:00+10ююз009099 0.0 102656
7 октября, пт
пт700:00+10ссз0093100 0.0 102672
03:00+9ссв119498 0.0 102675
06:00+9св119668 0.0 102636
09:00+12ссв118073 0.0 1026496
12:00+13св227699 0.0 1024706
15:00+13св237690 0.0 1023551
18:00+11в118670 0.0 102429
21:00+10юв118813 0.0 102413
8 октября, сб
сб800:00+9юв11900 0.0 102312
03:00+8юв11880 0.0 102211
06:00+8ююв11863 0.0 102211
09:00+13с21690 0.0 1021398
12:00+16ссв326613 0.0 1019685
15:00+15св337239 0.0 1018609
18:00+11всв129570 0.0 101962
21:00+11всв119367 0.0 1019111
9 октября, вс
вс900:00+10вюв118672 0.0 101795
03:00+10юв117991 0.0 101623
06:00+10ююв117936 0.0 101514
09:00+16с2164100 0.0 1013251
12:00+19ссз3157100 0.0 1012471
15:00+19зюз1454100 0.0 1011740
18:00+14ююв2364100 0.0 101255
21:00+13ююз2264100 0.0 101335
10 октября, пн
пн1000:00+11ююз23705 0.0 101453
03:00+10ююз238969 0.0 101560
06:00+12ююз3480100 0.0 101566
09:00+15зсз2466100 0.0 1016832
12:00+14зюз0169100 0.2 1016502
15:00+16ююв1159100 0.3 1015681
18:00+11юв11825 0.1 101711
21:00+10ю228335 0.1 101816